Location: Alexander
(41.3564°N, 81.5960°W)
Time: 08:22:47
(UTC+00:00)

Landsat 5 - Pass Details

Date: 24 January 2021
Orbit: 528 x 654 km, 98.2° (Epoch: 03 March)

Event Time Altitude Azimuth Distance (km) Brightness Sun altitude
Rises 22:53:50 0° 8° (N) 2,718 6.6 -4.4°
Reaches altitude 10° 22:56:00 10° 4° (N) 1,807 5.7 -4.8°
Maximum altitude 22:59:48 56° 287° (WNW) 637 4.0 -5.5°
Drops below altitude 10° 23:03:32 10° 208° (SSW) 1,768 6.7 -6.1°
Sets 23:05:38 0° 204° (SSW) 2,652 7.5 -6.5°
